Theta_e
307 308 310 311 311 312 313 316 313 312 312 312 313 313 313 311 307 308 309 309 307 306 306 304 304 303 303 305 305 306 309 310 310 309 311 307 308 307 305 307 307 308 308 307 309
305 306 307 309 308 309 310 311 315 312 311 312 313 313 313 308 308 308 310 308 307 305 303 304 305 304 306 306 307 308 309 311 309 309 310 307 307 307 307 307 308 307 305 306 309
304 304 306 306 307 308 309 309 308 314 312 312 312 313 313 306 308 310 307 306 305 305 304 304 305 306 307 306 306 307 310 309 307 307 306 307 306 307 308 308 309 309 308 307 309
304 304 304 306 307 308 308 311 311 312 313 312 312 312 312 305 313 306 308 308 307 305 303 303 305 306 307 307 306 307 306 306 307 306 306 307 307 307 308 310 307 307 306 307 308
304 305 304 305 306 308 309 311 310 312 313 312 313 312 311 307 309 307 308 309 307 304 304 306 305 307 308 307 306 305 306 305 305 305 306 305 307 308 308 307 304 303 304 306 307
304 305 304 304 306 307 308 309 313 312 313 312 314 312 308 312 308 306 308 309 305 303 304 305 307 306 307 307 307 308 307 307 307 307 306 306 308 305 309 306 307 303 304 303 304
303 304 303 304 304 304 305 307 309 313 313 312 314 312 307 312 307 304 307 307 305 302 303 304 304 306 308 308 306 306 308 308 308 307 307 306 308 307 309 304 305 303 303 302 301
301 302 303 303 303 303 303 304 306 309 313 312 314 312 313 310 308 305 305 302 302 302 302 303 303 305 306 305 306 308 308 313 311 307 307 308 315 313 306 304 305 304 304 302 302
300 301 302 302 303 303 303 303 302 306 310 312 313 309 312 305 305 305 304 303 302 302 302 301 304 306 304 308 310 309 316 313 312 307 306 308 314 310 303 304 305 304 304 302 302
298 300 300 301 302 302 302 300 301 307 310 311 307 309 307 306 303 302 302 302 303 303 303 304 305 307 307 309 320 315 311 311 313 309 306 307 310 307 304 304 305 305 304 302 301
297 298 300 300 300 300 302 302 305 309 309 311 309 312 310 305 301 301 302 302 302 304 306 304 306 309 309 308 311 313 314 314 312 307 308 309 309 309 307 304 305 304 303 302 301
297 297 298 300 300 300 299 301 300 302 304 304 305 307 308 301 302 302 302 304 304 308 306 304 307 309 307 307 309 310 312 313 310 305 306 309 309 308 308 307 306 306 304 302 299
298 297 297 298 299 299 300 300 300 299 299 302 304 306 308 304 307 303 303 306 307 307 305 309 311 307 305 306 307 309 311 312 312 306 305 306 312 311 308 307 306 302 304 301 300
296 297 297 297 298 297 296 298 297 298 300 301 305 306 308 306 307 304 302 305 306 308 307 307 309 307 306 307 306 311 308 308 310 309 316 307 322 317 310 305 300 301 300 299 299
297 297 297 297 296 297 297 297 296 299 300 302 306 305 308 308 308 307 302 305 307 308 307 308 307 309 311 308 307 311 305 308 308 311 311 310 313 316 304 306 304 300 299 299 298
295 296 297 296 296 297 297 296 295 301 300 304 305 308 308 308 308 305 303 304 303 306 306 309 305 308 310 309 307 306 307 307 308 311 314 315 313 318 315 311 306 301 299 298 297
295 296 296 296 296 296 296 295 299 299 301 301 303 305 307 309 305 305 305 304 308 309 309 309 309 306 305 308 306 308 310 313 313 313 316 308 311 316 310 303 302 302 300 298 296
296 295 295 295 295 296 295 298 298 297 300 301 303 304 307 308 307 304 306 307 306 310 312 312 311 307 306 309 309 310 312 316 318 316 314 302 312 314 303 296 293 298 299 297 296
295 294 295 294 294 296 296 298 297 295 297 300 303 304 305 305 306 305 306 307 306 308 315 313 313 306 306 305 307 309 313 311 306 301 310 308 306 303 299 297 295 295 297 297 296
295 294 295 293 294 295 296 297 295 295 299 300 299 301 303 305 305 305 306 306 308 307 310 313 313 306 305 304 304 308 307 311 313 313 317 315 308 314 301 301 297 296 298 297 295
295 295 294 294 295 295 297 297 295 295 297 300 299 301 303 304 304 305 305 305 305 306 307 307 311 306 305 308 309 307 309 311 311 313 321 319 318 310 306 302 300 298 298 296 295
294 296 294 294 296 296 297 293 295 297 297 297 298 300 300 300 301 304 305 305 304 304 308 306 308 306 305 299 298 306 311 309 315 310 305 305 316 295 294 296 300 298 296 295 294
295 295 294 294 297 298 296 296 296 296 297 299 300 301 302 302 305 305 305 303 303 306 308 305 306 305 304 304 302 305 304 307 303 306 307 313 316 294 291 290 292 298 295 293 292
295 295 295 296 297 298 298 297 297 296 298 298 298 299 300 301 302 304 305 303 302 304 306 305 305 309 312 307 304 305 306 304 308 310 310 312 309 304 298 295 292 294 294 293 292
295 295 295 296 296 296 298 298 298 298 298 298 299 299 300 300 299 302 304 303 303 303 303 305 308 302 297 297 300 302 303 304 307 309 310 309 304 307 302 297 294 294 292 290 289
294 295 295 295 295 297 297 297 297 297 297 298 299 298 301 301 301 302 303 303 304 303 304 302 304 299 299 296 299 302 302 303 305 308 304 294 300 298 289 286 291 292 291 291 290
293 292 295 295 296 297 297 297 298 297 297 298 298 299 300 300 301 300 299 300 303 303 303 303 301 304 305 296 300 305 301 303 304 305 305 306 307 297 295 291 295 294 291 292 290
Wind_Speed
22 21 23 21 21 20 19 19 18 17 15 13 12 13 12 14 14 6 9 12 9 14 13 14 8 9 7 4 2 2 6 10 10 8 4 5 6 3 2 4 4 5 1 5 14
24 22 22 23 23 23 24 22 22 19 16 15 13 13 12 13 10 14 20 14 15 18 14 18 12 14 6 7 6 7 6 11 7 8 4 4 5 4 4 5 6 5 3 7 13
26 25 24 23 24 25 28 28 22 23 18 15 14 13 13 9 5 5 6 15 16 18 13 10 12 9 8 6 9 7 10 10 7 8 5 4 5 4 6 7 9 8 8 10 13
27 27 26 25 24 25 28 29 25 22 20 14 14 13 12 4 7 2 3 12 14 15 10 9 9 8 8 10 9 6 11 7 4 7 6 6 2 5 11 9 0 5 5 11 13
28 27 24 25 26 28 30 28 24 21 21 18 16 13 6 6 9 8 3 10 14 16 14 11 11 8 11 8 9 12 9 8 9 6 7 2 10 9 13 9 4 6 5 7 9
32 27 22 23 25 27 29 31 24 20 21 19 17 12 4 13 9 9 10 13 13 12 12 11 9 7 7 6 14 8 10 8 7 10 9 10 10 6 9 8 16 10 9 7 9
30 28 24 22 25 28 29 31 29 21 22 20 18 14 7 17 8 6 12 14 16 13 6 10 6 9 6 4 5 3 5 7 13 10 7 9 10 17 16 7 11 11 8 5 4
29 28 25 24 24 26 28 31 31 25 22 21 19 15 10 9 18 16 11 10 12 13 7 7 6 4 4 4 3 5 3 9 3 12 6 12 19 8 9 14 13 12 9 6 5
29 28 27 25 25 28 30 34 32 25 23 21 17 10 9 6 10 21 24 11 11 8 6 5 4 5 5 8 6 7 12 13 6 13 7 15 8 5 6 13 13 13 10 7 7
32 31 29 30 31 30 32 36 32 21 10 8 0 5 5 7 7 7 17 14 3 9 5 6 6 9 11 13 16 14 10 10 13 9 11 12 17 6 10 11 13 12 9 9 9
32 31 30 29 30 30 29 21 7 5 4 8 2 14 9 5 8 9 15 12 6 7 13 9 10 20 24 22 18 12 16 17 9 7 9 16 17 17 15 13 14 13 12 11 9
31 31 31 30 28 27 21 9 6 8 12 14 20 16 27 5 5 9 20 12 11 18 15 7 23 23 13 19 21 14 14 15 4 6 7 8 16 15 16 19 21 19 16 13 11
33 30 29 30 27 20 14 19 9 10 6 16 19 16 15 17 13 15 19 13 13 16 20 20 20 18 16 15 17 22 23 18 14 3 4 7 21 18 14 17 14 12 14 12 14
33 31 29 29 18 10 8 9 18 6 5 11 9 11 13 9 10 15 23 9 7 20 19 15 19 9 20 22 18 19 16 15 11 4 11 2 12 14 11 13 12 13 14 14 14
33 31 28 23 22 9 14 15 15 6 6 5 6 4 6 14 10 12 29 12 9 12 9 14 13 22 11 20 18 11 3 8 11 14 9 12 6 9 6 10 15 16 15 15 14
36 32 29 24 14 17 18 11 5 6 9 5 1 1 5 12 6 10 12 6 3 7 3 7 1 14 16 14 13 14 8 5 3 4 7 13 14 21 12 8 6 16 18 16 14
35 31 30 23 14 14 11 0 5 6 1 9 10 2 4 6 7 9 16 14 13 9 9 5 5 4 3 6 5 9 11 4 5 6 7 6 12 25 2 5 5 16 19 16 14
34 35 30 27 23 17 8 5 10 6 11 1 2 5 6 3 4 5 11 12 18 12 8 13 7 13 9 9 10 21 13 6 9 7 5 5 12 8 1 3 1 3 12 15 13
36 26 15 20 17 14 3 7 7 7 7 10 5 6 7 3 5 4 6 12 14 13 14 11 9 11 19 6 12 7 9 2 6 2 2 6 7 12 8 4 5 11 17 15 13
29 25 22 23 16 10 5 10 8 10 4 3 5 3 3 1 1 2 5 3 4 21 19 6 6 11 6 5 0 6 12 4 4 7 6 7 7 8 8 11 11 14 17 14 12
21 5 8 6 14 3 4 6 7 9 9 8 11 11 6 3 5 4 5 5 6 7 19 4 3 6 11 10 14 7 6 5 4 3 6 4 5 2 2 13 16 15 14 14 13
3 5 4 10 3 2 4 4 4 7 7 13 9 11 13 12 12 9 10 9 11 7 5 7 2 5 7 2 2 6 5 8 6 6 2 2 5 1 0 1 11 12 11 12 11
3 3 3 8 5 4 4 5 8 6 9 3 5 7 1 3 7 13 11 4 11 11 6 6 5 5 4 2 2 7 6 6 5 1 8 7 5 1 1 2 5 10 10 11 10
3 4 3 3 4 4 8 7 6 4 7 10 11 11 8 10 7 7 5 5 10 10 13 7 5 4 8 3 5 8 16 14 11 5 7 12 3 1 3 7 9 9 10 10 9
3 3 2 4 5 11 8 4 5 5 4 2 3 8 8 4 4 9 15 5 5 6 4 6 5 3 2 1 1 4 14 18 17 13 12 6 12 2 5 9 9 8 9 8 8
3 4 2 5 6 10 6 1 8 9 5 6 10 5 7 6 11 18 11 6 5 4 6 2 1 2 2 1 2 3 8 17 19 16 8 1 5 4 2 2 8 11 11 10 9
6 6 3 6 5 5 4 4 3 1 6 12 10 9 9 11 10 6 6 3 1 4 7 7 7 5 3 0 1 5 12 17 14 14 13 15 11 4 3 7 10 12 12 11 9
Wind_Direction
351 345 339 338 333 326 323 313 310 304 302 305 308 313 319 316 310 280 240 234 232 206 179 157 152 150 151 149 166 242 225 234 234 222 248 161 213 174 339 260 204 187 298 89 145
349 342 339 335 331 328 320 312 296 294 295 293 299 309 317 317 307 258 260 242 222 197 179 168 168 158 173 173 175 217 229 229 229 224 236 191 226 182 208 205 235 210 131 134 158
344 342 335 334 330 328 322 311 294 283 284 283 291 307 312 321 283 258 292 223 210 194 207 199 164 169 181 174 184 187 239 222 216 220 232 233 224 201 219 216 221 226 191 170 180
341 335 333 333 332 331 328 319 299 276 273 275 287 294 309 292 259 340 15 173 191 192 179 166 170 181 194 190 187 204 235 204 190 201 186 228 227 231 226 245 176 213 155 174 192
342 336 331 331 332 332 333 327 303 278 267 256 263 278 298 239 246 266 219 179 192 190 197 185 187 196 204 202 170 219 207 200 219 201 220 207 232 249 250 237 194 160 174 191 202
346 342 336 333 334 334 332 334 319 285 266 256 249 250 210 248 262 243 208 189 189 198 206 197 215 209 231 208 203 207 220 212 216 214 221 216 239 195 246 234 224 212 221 219 224
349 348 334 336 336 334 333 332 328 299 265 258 237 225 209 242 268 229 204 207 201 193 208 218 209 198 172 188 203 153 239 231 226 218 217 213 235 232 247 184 177 191 188 192 190
344 345 340 334 336 335 330 328 323 308 276 261 237 210 249 246 244 232 210 210 206 203 209 214 195 212 225 130 139 205 222 245 174 191 189 186 259 237 192 194 199 195 198 214 216
340 339 332 326 329 329 326 323 317 306 280 253 226 183 261 186 228 230 215 198 174 171 177 153 180 222 165 204 217 201 245 229 240 195 157 202 244 195 173 192 198 195 204 220 232
335 335 329 325 319 318 323 316 315 289 270 253 9 149 230 206 198 199 202 195 169 141 127 167 194 216 214 202 223 222 228 233 229 187 205 205 240 193 195 193 198 203 212 217 224
334 330 327 325 319 322 322 329 325 248 265 238 228 242 241 187 155 179 173 165 125 184 191 187 205 219 215 216 228 267 239 241 231 181 211 226 242 239 217 216 219 219 215 213 208
326 327 324 323 318 313 318 293 311 320 297 275 259 251 254 206 196 187 165 173 187 206 197 176 224 226 241 218 224 226 237 231 247 165 215 253 254 244 242 232 230 225 216 203 183
319 319 320 320 317 314 305 275 311 328 278 267 244 238 231 199 217 192 183 197 193 207 196 202 222 204 195 204 215 232 236 241 243 165 241 288 273 241 237 237 229 228 213 194 188
319 316 317 323 314 325 316 303 327 304 275 262 214 235 206 191 229 179 200 161 197 197 203 229 241 219 208 210 196 229 220 237 232 213 248 225 278 235 211 220 215 205 190 183 181
323 314 311 316 299 281 293 292 304 235 271 270 189 347 180 185 148 201 184 184 189 170 160 214 200 205 202 216 200 230 29 229 229 236 268 224 256 249 167 230 222 203 194 185 180
321 317 308 309 298 275 290 297 310 220 221 264 332 264 188 202 198 128 167 169 119 196 231 207 196 197 214 206 204 146 113 93 113 176 224 219 212 268 215 207 211 191 186 176 171
320 317 305 295 276 287 263 96 242 240 247 255 248 259 276 216 178 195 183 175 183 179 191 172 176 161 177 129 126 161 144 153 189 201 235 159 197 246 308 193 190 185 179 172 169
316 314 297 281 275 264 187 211 227 252 235 180 152 283 244 163 235 210 194 190 220 224 178 197 200 167 174 198 178 188 183 182 209 199 193 153 222 243 270 88 116 156 155 159 167
317 314 283 278 273 233 199 227 191 237 257 263 196 218 264 185 227 223 247 217 206 197 211 191 219 186 171 156 151 168 214 107 107 13 184 202 260 273 191 166 163 160 159 168 171
314 305 280 291 249 197 211 220 229 217 282 322 300 197 285 240 237 195 191 228 251 211 234 202 195 190 140 122 177 197 137 147 180 172 220 217 263 247 204 192 170 170 171 170 167
305 283 282 278 181 203 236 231 236 247 260 240 260 254 260 293 284 289 227 230 211 246 213 199 175 139 149 208 176 155 177 186 162 197 213 246 241 214 227 183 176 177 172 168 169
282 257 202 169 260 211 249 219 247 263 260 243 260 261 264 273 278 267 225 231 185 166 221 188 101 153 185 1 309 227 213 179 197 187 253 5 271 92 63 219 175 167 164 164 162
264 268 206 182 257 222 212 231 238 249 251 260 248 234 185 294 277 226 238 268 191 180 202 172 164 126 123 123 179 210 188 209 74 93 194 185 248 43 77 205 192 164 163 164 158
275 285 243 223 247 264 260 261 241 234 243 245 263 282 270 244 225 280 250 202 211 213 199 181 182 219 220 127 136 194 191 181 187 196 165 227 320 245 171 184 179 176 167 163 165
230 262 264 273 253 251 267 261 273 276 221 197 268 241 247 263 301 270 246 220 208 214 220 194 222 150 73 115 152 192 184 186 203 202 197 187 207 184 191 197 185 164 163 167 177
246 270 308 274 270 264 257 238 264 267 225 260 230 229 244 279 284 284 287 220 225 160 185 182 170 108 137 342 253 218 203 202 215 213 231 170 265 181 93 63 174 183 175 186 193
220 260 258 266 263 250 238 230 247 167 258 255 279 282 262 268 246 257 259 332 55 183 182 173 149 175 203 98 154 266 214 201 210 213 216 224 230 135 226 215 205 189 186 188 182